Regional Weather Roundup
Issued by NWS

Home | Current Version | Previous Version | Graphics & Text | Print | Product List | Glossary On
Versions: 1 2 3 4 5 6 7 8 9 10 11 12 13 14 15 16 17 18 19 20 21 22 23 24 25 26 27 28 29 30 31 32 33 34 35 36 37 38 39 40 41 42 43 44 45 46 47 48 49 50
000
ASUS45 KCYS 022310
RWRWY

WYOMING REGIONAL WEATHER ROUNDUP
NATIONAL WEATHER SERVICE CHEYENNE WY
500 PM MDT SAT MAY 02 2015

NOTE:  "FAIR" INDICATES FEW OR NO CLOUDS BELOW 12,000 FEET
WITH NO SIGNIFICANT WEATHER AND/OR OBSTRUCTIONS TO VISIBILITY.

WYZ001-030000-
YELLOWSTONE NATIONAL PARK

CITY           SKY/WX    TMP DP  RH WIND       PRES   REMARKS
LK YELLOWSTONE   N/A     60  17  18 VRB7G18   29.95F
W YELLOWSTONE  NOT AVBL

$$
WYZ002>013-054>058-071-098>099-030000-
NORTHERN WYOMING

CITY           SKY/WX    TMP DP  RH WIND       PRES   REMARKS
JACKSON        MOSUNNY   66  21  18 SW16G28   29.89F
CODY           FAIR      73  21  14 W9        29.78S
GREYBULL       FAIR      78  13   8 SE9G17    29.72F
WORLAND        FAIR      78  18  10 N6        29.73F
SHERIDAN       FAIR      75  27  17 N6        29.74F
BUFFALO        FAIR      72  21  14 N7        29.80F
GILLETTE       FAIR      74  24  15 VRB3      29.77F
HULETT         FAIR      73  21  14 NW7G16    29.78F
NEWCASTLE      FAIR      73  19  13 W12       29.78S

$$
WYZ014>020-022>026-101>103-030000-
CENTRAL WYOMING

CITY           SKY/WX    TMP DP  RH WIND       PRES   REMARKS
BIG PINEY      PTSUNNY   54  31  41 NW32G52   30.01R
PINEDALE       FAIR      54  28  37 W29G41    30.00R
DUBOIS         FAIR      61  21  21 W24G37    29.91F
LANDER         CLOUDY    69  28  21 W24G38    29.83R
RIVERTON       FAIR      77  21  12 W16G23    29.81F
CASPER         FAIR      72  25  17 W6        29.81F
DOUGLAS        FAIR      77  28  16 NW12      29.80F

$$
WYZ021-027>030-104>119-030000-
SOUTHERN WYOMING

CITY           SKY/WX    TMP DP  RH WIND       PRES   REMARKS
EVANSTON       FAIR      64  28  25 W14       29.99F
KEMMERER       FAIR      64  27  24 W25G33    30.00S
FORT BRIDGER   PTCLDY    70  23  17 W21G28    30.01S
ROCK SPRINGS   FAIR      56  39  53 S20       29.98F
DIXON          CLOUDY    62  34  34 S20G26    30.02S
RAWLINS        FAIR      58  35  42 SW13      29.99F
SARATOGA       CLOUDY    61  32  33 W5        30.04R
LARAMIE        PTSUNNY   53  34  48 S20       30.02R
CHEYENNE       LGT RAIN  57  40  52 W32G40    29.97R
TORRINGTON     FAIR      81  29  15 NW10      29.76F
PINE BLUFFS    FAIR      70  39  32 S3        29.87S

$$



USA.gov is the U.S. government's official web portal to all federal, state and local government web resources and services.